GAOFEN 3 DEB, 42679

Orbit data source: Space-Track

GAOFEN 3 DEB, 42679 is space debris in SSO originally from a launch on Tue, 09 Aug 2016 UTC launched from the Taiyaun Space Center, China (TSC). Debris objects in space refer to the collection of defunct objects orbiting the Earth. Examples of debris include non-operational satellites, rocket bodies, and fragments generated from explosions, collisions, or faulty payload assembly.

Loading next visibility...
Identifier
42679, 2016-049D
Orbit
SSO
Country
Flag of CNCN / PRC
Related business
Manufacturer
Unknown
Mission
Spacecraft
Bus & Motor
Unknown
Mass
Unknown
Launch date (UTC)
2016-08-09 (9 years ago)
Launch vehicle
Unknown
Launch site
Taiyaun Space Center, China (TSC)
Object type
Payload
Rocket body
Debris
Shape & HBR
Unknown
Radar Cross Section
Small (<0.1 m²)

Expand to show TLE details & history
Last TLE update: 1 day ago

TLE from 1 day ago
0 GAOFEN 3 DEB
1 42679U 16049D   25248.76748207  .00000402  00000-0  12380-3 0  9993
2 42679  98.3279 260.2064 0007621 133.7782 226.4042 14.46473961478717
Epoch: 2025-09-05T18:25Z
TLE epoch observation values (Epoch: 2025-09-05T18:25:10.45Z)
Latitude
-0.00004°
Longitude
-1.19807°
Altitude
743.893 km
Speed
7.481 km/s
True Right ascension
17h 20m 49s
True Declination
0° 00' 00"
Sunlit
Object was in daylight at epoch
Visualization orbit readout
Latitude
Unknown
Longitude
Unknown
Altitude
Unknown
Speed
Unknown
Apparent Right ascension
Unknown
Apparent Declination
Unknown
Sunlit
N/A
Visualization observer readout
Local Sidereal Time
18:03:47
Azimuth
Unknown
Elevation
Unknown
Doppler factor
Unknown
Orbital elements
Apogee altitude
739.714 km
Perigee altitude
728.873 km
Semi-major axis
7,112.431 km
Eccentricity
0.00076
Inclination
98.3279°
RAAN
260.2064°
Arg. of periapsis
133.7782°
True anomaly
226.341°
Mean anomaly
226.4042°
Eccentric anomaly
226.37259°
Mean motion
3.6184 °/min
Orbital period
99.49 mins
BSTAR
0.0001238
Loading maneuver chart data...
Computing Atmospheric mass density...
Loading historical data...
Loading historical data...
Loading historical data...
Loading historical data...
Loading historical data...
Loading historical data...
Loading historical data...
Other satellites on launch #49 in the year 2016 (2016-08-09 UTC)

Documentation

Showing up to 5 results
|